WX5HOT Weather Reports


Display with metric or nautical units.
time (UTC)temp
F
wind
direction
speed
MPH
gust
MPH
rain 1hr
in
rain 24hr
in
rain mn
in
humidity
%
barometer
mb
20260505081246 62 186 6.0 7.0 0.00 0.00 0.00 85 1057.0
20260505080743 62 182 5.0 9.0 0.00 0.00 0.00 84 1057.0
20260505080239 62 199 5.0 8.0 0.00 0.00 0.00 84 1056.9
20260505075734 62 172 3.0 6.0 0.00 0.00 0.00 84 1057.1
20260505075232 62 165 4.0 6.0 0.00 0.00 0.00 83 1057.0
20260505074729 63 204 5.0 8.0 0.00 0.00 0.00 82 1057.0
20260505074226 63 184 6.0 7.0 0.00 0.00 0.00 82 1057.3
20260505073724 63 189 8.0 10.0 0.00 0.00 0.00 82 1057.1
20260505073221 63 190 6.0 7.0 0.00 0.00 0.00 81 1057.2
20260505072717 63 190 4.0 6.0 0.00 0.00 0.00 81 1057.3
20260505072214 63 174 4.0 7.0 0.00 0.00 0.00 80 1057.4
20260505071709 63 169 5.0 7.0 0.00 0.00 0.00 80 1057.3
20260505071207 63 158 5.0 7.0 0.00 0.00 0.00 79 1057.2
20260505070704 63 205 6.0 9.0 0.00 0.00 0.00 79 1057.2
20260505070200 64 190 5.0 8.0 0.00 0.00 0.00 78 1057.1
20260505065656 64 192 5.0 7.0 0.00 0.00 0.00 78 1057.4
20260505065153 64 183 8.0 9.0 0.00 0.00 0.00 77 1057.6
20260505064650 63 178 6.0 7.0 0.00 0.00 0.00 77 1058.0
20260505064148 63 187 7.0 10.0 0.00 0.00 0.00 77 1058.2
20260505063646 63 174 6.0 7.0 0.00 0.00 0.00 76 1057.9
20260505063142 63 154 6.0 9.0 0.00 0.00 0.00 76 1058.0
20260505062638 63 184 6.0 7.0 0.00 0.00 0.00 75 1058.3
20260505062135 63 188 6.0 7.0 0.00 0.00 0.00 75 1058.3
20260505061632 63 163 4.0 4.0 0.00 0.00 0.00 74 1058.2
20260505061131 64 192 4.0 4.0 0.00 0.00 0.00 74 1058.4
20260505060628 64 173 7.0 8.0 0.00 0.00 0.00 73 1058.4
20260505060125 64 180 6.0 7.0 0.00 0.00 0.00 73 1058.6
20260505055620 64 154 6.0 7.0 0.00 0.00 0.00 72 1058.4
20260505055116 64 172 9.0 10.0 0.00 0.00 0.00 72 1058.5
20260505054614 64 188 5.0 6.0 0.00 0.00 0.00 71 1058.5
20260505054112 64 195 8.0 10.0 0.00 0.00 0.00 71 1058.5
20260505053609 64 169 8.0 11.0 0.00 0.00 0.00 70 1058.6
20260505053105 64 191 7.0 8.0 0.00 0.00 0.00 70 1058.8
20260505052602 64 185 5.0 7.0 0.00 0.00 0.00 70 1058.8
20260505052100 64 198 6.0 6.0 0.00 0.00 0.00 69 1058.8
20260505051557 64 178 6.0 7.0 0.00 0.00 0.00 69 1058.9
20260505051055 64 167 8.0 9.0 0.00 0.00 0.00 68 1058.9
20260505050552 64 169 5.0 6.0 0.00 0.00 0.00 68 1059.0
20260505041520 65 180 9.0 10.0 0.00 0.00 0.00 66 1059.5
20260505041018 64 185 6.0 8.0 0.00 0.00 0.00 66 1059.6
20260505040515 64 174 6.0 8.0 0.00 0.00 0.00 66 1059.5
20260505040012 64 171 7.0 8.0 0.00 0.00 0.00 66 1059.7
20260505035508 64 171 8.0 11.0 0.00 0.00 0.00 66 1059.7
20260505035005 64 184 7.0 8.0 0.00 0.00 0.00 66 1059.7
20260505034501 65 170 7.0 9.0 0.00 0.00 0.00 66 1059.3
20260505033958 65 181 9.0 10.0 0.00 0.00 0.00 66 1059.7
20260505033455 65 169 9.0 10.0 0.00 0.00 0.00 66 1059.6
20260505032954 65 181 6.0 8.0 0.00 0.00 0.00 66 1059.6
20260505032450 65 169 9.0 10.0 0.00 0.00 0.00 66 1059.7
20260505031946 65 184 9.0 9.0 0.00 0.00 0.00 66 1059.5
20260505031444 65 120 8.0 11.0 0.00 0.00 0.00 66 1059.5
20260505030941 65 152 7.0 9.0 0.00 0.00 0.00 66 1059.4
20260505030437 65 165 9.0 11.0 0.00 0.00 0.00 66 1059.7
20260505025932 65 167 7.0 8.0 0.00 0.00 0.00 66 1059.4
20260505025429 65 179 10.0 10.0 0.00 0.00 0.00 66 1059.5
20260505024928 65 170 10.0 13.0 0.00 0.00 0.00 66 1059.5
20260505024425 65 172 9.0 10.0 0.00 0.00 0.00 65 1059.6
20260505023922 65 165 10.0 13.0 0.00 0.00 0.00 65 1059.3
20260505023419 65 184 7.0 9.0 0.00 0.00 0.00 65 1059.0
20260505022916 65 173 9.0 11.0 0.00 0.00 0.00 65 1059.1
20260505022414 65 171 9.0 10.0 0.00 0.00 0.00 65 1059.1
20260505021911 66 177 8.0 9.0 0.00 0.00 0.00 64 1059.1
20260505021407 66 148 6.0 8.0 0.00 0.00 0.00 64 1059.0
20260505020903 66 260 9.0 9.0 0.00 0.00 0.00 64 1058.8
20260505020359 66 179 5.0 6.0 0.00 0.00 0.00 63 1058.9
20260505015856 66 177 8.0 9.0 0.00 0.00 0.00 64 1058.9
20260505015353 66 165 9.0 10.0 0.00 0.00 0.00 63 1058.7
20260505014850 66 167 8.0 9.0 0.00 0.00 0.00 64 1058.5
20260505014347 66 71 7.0 9.0 0.00 0.00 0.00 64 1058.7
20260505013844 66 156 9.0 10.0 0.00 0.00 0.00 64 1058.8
20260505013341 66 185 9.0 9.0 0.00 0.00 0.00 64 1058.5
20260505012839 66 175 7.0 9.0 0.00 0.00 0.00 65 1058.4
20260505012337 66 174 9.0 10.0 0.00 0.00 0.00 64 1058.4
20260505011832 66 178 7.0 8.0 0.00 0.00 0.00 64 1058.7
20260505011330 66 178 6.0 8.0 0.00 0.00 0.00 65 1058.7
20260505010825 67 169 7.0 9.0 0.00 0.00 0.00 64 1058.5
20260505010321 67 174 7.0 8.0 0.00 0.00 0.00 63 1058.8
20260505005818 67 131 8.0 10.0 0.00 0.00 0.00 62 1058.6
20260505005315 67 169 9.0 11.0 0.00 0.00 0.00 62 1058.4
20260505004812 67 183 7.0 9.0 0.00 0.00 0.00 62 1058.6
20260505004308 67 185 8.0 9.0 0.00 0.00 0.00 62 1058.6
20260505003806 67 154 9.0 11.0 0.00 0.00 0.00 61 1058.5
20260505003303 67 177 6.0 7.0 0.00 0.00 0.00 61 1058.7
20260505002759 67 177 6.0 8.0 0.00 0.00 0.00 61 1058.7
20260505002257 68 173 7.0 9.0 0.00 0.00 0.00 61 1058.7
20260505001754 68 186 6.0 7.0 0.00 0.00 0.00 61 1058.9
20260505001252 68 173 7.0 8.0 0.00 0.00 0.00 61 1058.8
20260505000749 68 171 5.0 7.0 0.00 0.00 0.00 60 1058.9
20260505000246 68 165 4.0 4.0 0.00 0.00 0.00 61 1058.9
20260504235743 68 187 6.0 7.0 0.00 0.00 0.00 60 1058.7
20260504235239 68 172 6.0 7.0 0.00 0.00 0.00 60 1058.9
20260504234736 68 188 6.0 8.0 0.00 0.00 0.00 59 1059.0
20260504234233 69 185 5.0 6.0 0.00 0.00 0.00 59 1058.8
20260504233730 69 182 9.0 10.0 0.00 0.00 0.00 58 1059.2
20260504233226 69 182 8.0 11.0 0.00 0.00 0.00 57 1059.0
20260504232723 69 159 8.0 9.0 0.00 0.00 0.00 58 1059.2
20260504232220 69 169 6.0 8.0 0.00 0.00 0.00 58 1059.1
20260504231716 69 174 5.0 6.0 0.00 0.00 0.00 58 1059.3
20260504231213 69 141 6.0 8.0 0.00 0.00 0.00 56 1059.3
20260504230709 69 180 7.0 8.0 0.00 0.00 0.00 57 1059.3
20260504230208 69 179 6.0 7.0 0.00 0.00 0.00 57 1059.3
20260504225706 69 164 7.0 8.0 0.00 0.00 0.00 59 1059.2
20260504225202 69 174 4.0 6.0 0.00 0.00 0.00 58 1059.3
20260504224659 70 161 5.0 6.0 0.00 0.00 0.00 57 1059.6
20260504224156 70 161 4.0 6.0 0.00 0.00 0.00 57 1059.6
20260504223653 70 196 8.0 10.0 0.00 0.00 0.00 56 1059.5
20260504223148 70 165 4.0 6.0 0.00 0.00 0.00 57 1059.6
20260504222646 70 132 3.0 3.0 0.00 0.00 0.00 57 1059.7
20260504222142 71 169 8.0 9.0 0.00 0.00 0.00 54 1059.9
20260504221640 71 182 7.0 9.0 0.00 0.00 0.00 54 1059.7
20260504221137 71 172 7.0 8.0 0.00 0.00 0.00 55 1059.8
20260504220633 72 175 6.0 8.0 0.00 0.00 0.00 52 1059.6
20260504220131 72 171 4.0 4.0 0.00 0.00 0.00 54 1059.9
20260504215627 71 179 3.0 3.0 0.00 0.00 0.00 53 1059.9
20260504215125 71 189 4.0 6.0 0.00 0.00 0.00 52 1060.2
20260504214620 72 186 5.0 6.0 0.00 0.00 0.00 52 1060.1
20260504214117 72 181 4.0 4.0 0.00 0.00 0.00 53 1060.2
20260504213613 71 184 3.0 3.0 0.00 0.00 0.00 55 1060.5
20260504213110 71 193 5.0 7.0 0.00 0.00 0.00 52 1060.5
20260504212606 71 155 6.0 8.0 0.00 0.00 0.00 54 1060.4
20260504212103 71 167 5.0 6.0 0.00 0.00 0.00 54 1060.4
20260504211601 71 189 7.0 9.0 0.00 0.00 0.00 52 1060.7
20260504211057 71 165 5.0 6.0 0.00 0.00 0.00 53 1060.5
20260504210555 70 171 4.0 6.0 0.00 0.00 0.00 54 1060.8
20260504210051 70 179 4.0 4.0 0.00 0.00 0.00 53 1060.9
20260504205549 70 172 5.0 6.0 0.00 0.00 0.00 55 1060.9
20260504205047 70 157 6.0 10.0 0.00 0.00 0.00 53 1061.1
20260504204544 70 169 4.0 6.0 0.00 0.00 0.00 53 1060.9
20260504204043 71 159 5.0 7.0 0.00 0.00 0.00 52 1061.3
20260504203541 71 164 5.0 7.0 0.00 0.00 0.00 54 1061.4
20260504203038 71 182 6.0 6.0 0.00 0.00 0.00 52 1061.5
20260504202533 71 178 4.0 6.0 0.00 0.00 0.00 52 1061.3
20260504202031 71 206 2.0 2.0 0.00 0.00 0.00 52 1061.3
20260504201527 70 174 5.0 6.0 0.00 0.00 0.00 54 1061.7
20260504201025 69 180 4.0 4.0 0.00 0.00 0.00 55 1062.0
20260504200521 70 147 6.0 7.0 0.00 0.00 0.00 53 1061.7
20260504200018 71 166 5.0 7.0 0.00 0.00 0.00 51 1062.0
20260504195514 71 182 3.0 4.0 0.00 0.00 0.00 55 1062.2
20260504195011 69 182 5.0 7.0 0.00 0.00 0.00 54 1062.1
20260504194508 69 176 4.0 7.0 0.00 0.00 0.00 56 1062.1
20260504194003 70 182 5.0 6.0 0.00 0.00 0.00 55 1062.3
20260504193500 69 189 5.0 6.0 0.00 0.00 0.00 55 1062.3
20260504192959 69 189 3.0 6.0 0.00 0.00 0.00 55 1062.3
20260504192456 69 146 4.0 4.0 0.00 0.00 0.00 54 1062.5
20260504191955 69 172 6.0 7.0 0.00 0.00 0.00 54 1062.6
20260504191452 69 177 8.0 10.0 0.00 0.00 0.00 55 1062.7
20260504190947 68 184 6.0 8.0 0.00 0.00 0.00 55 1062.4
20260504190443 69 182 8.0 9.0 0.00 0.00 0.00 55 1062.5
20260504185940 69 175 4.0 6.0 0.00 0.00 0.00 54 1062.3
20260504185438 69 171 5.0 9.0 0.00 0.00 0.00 53 1062.4
20260504184933 70 203 4.0 8.0 0.00 0.00 0.00 53 1062.5
20260504184429 69 189 5.0 4.0 0.00 0.00 0.00 53 1062.8
20260504183925 69 189 5.0 7.0 0.00 0.00 0.00 53 1062.7
20260504183423 68 174 7.0 9.0 0.00 0.00 0.00 53 1063.1
20260504182921 69 187 6.0 8.0 0.00 0.00 0.00 52 1063.1
20260504182417 70 169 5.0 7.0 0.00 0.00 0.00 52 1062.7
20260504181914 69 183 4.0 6.0 0.00 0.00 0.00 51 1063.0
20260504181412 69 154 4.0 6.0 0.00 0.00 0.00 52 1063.1
20260504180910 69 211 7.0 11.0 0.00 0.00 0.00 51 1063.0
20260504180409 69 189 6.0 8.0 0.00 0.00 0.00 51 1063.3
20260504175906 69 206 7.0 9.0 0.00 0.00 0.00 51 1063.3
20260504175403 68 178 7.0 9.0 0.00 0.00 0.00 51 1063.2
20260504174901 68 185 8.0 10.0 0.00 0.00 0.00 51 1063.3
20260504174358 68 211 9.0 15.0 0.00 0.00 0.00 51 1063.3
20260504173855 68 185 6.0 8.0 0.00 0.00 0.00 51 1063.2
20260504173352 68 179 7.0 8.0 0.00 0.00 0.00 52 1063.4
20260504172849 68 170 5.0 6.0 0.00 0.00 0.00 52 1063.2
20260504172345 68 173 6.0 8.0 0.00 0.00 0.00 54 1063.4
20260504171841 67 181 6.0 7.0 0.00 0.00 0.00 53 1063.7
20260504171339 67 170 7.0 9.0 0.00 0.00 0.00 52 1063.7
20260504170836 67 146 11.0 15.0 0.00 0.00 0.00 52 1063.6
20260504170332 67 145 6.0 11.0 0.00 0.00 0.00 53 1064.0
20260504160251 65 204 4.0 6.0 0.00 0.00 0.00 59 1064.5
20260504150716 62 115 4.0 4.0 0.00 0.00 0.00 64 1064.4
20260504150213 62 176 4.0 6.0 0.00 0.00 0.00 63 1064.5
20260504141142 62 191 5.0 7.0 0.00 0.00 0.00 63 1064.4
20260504140639 62 89 4.0 8.0 0.00 0.00 0.00 63 1064.4
20260504140134 62 140 5.0 7.0 0.00 0.00 0.00 64 1064.5
20260504130603 59 200 6.0 6.0 0.00 0.00 0.00 69 1064.6
20260504110451 60 200 4.0 6.0 0.00 0.00 0.00 58 1063.6
20260504100413 60 132 4.0 7.0 0.00 0.00 0.00 58 1064.1
20260504081806 62 178 4.0 6.0 0.00 0.00 0.00 54 1064.8